Total_Precipitation_Accumulation
0.69 0.89 0.79 0.55 0.56 0.48 0.38 0.38 0.28 0.16 0.14 0.26 0.26 0.18 0.13 0.14 0.17 0.17 0.17 0.21 0.22 0.22 0.27 0.33 0.44 0.54 0.63 0.68 0.76 0.86 1.02 1.19 1.37 1.52 1.60 1.56 1.51 1.40 1.35 1.32 1.22 1.10 1.08 1.14
0.77 0.70 0.37 0.28 0.35 0.42 0.43 0.48 0.37 0.24 0.18 0.28 0.28 0.19 0.14 0.15 0.18 0.19 0.19 0.23 0.25 0.22 0.26 0.31 0.41 0.55 0.63 0.68 0.73 0.83 0.97 1.10 1.24 1.38 1.46 1.53 1.47 1.43 1.35 1.30 1.27 1.18 1.09 1.14
0.61 0.40 0.25 0.33 0.44 0.56 0.50 0.45 0.38 0.34 0.29 0.32 0.35 0.28 0.14 0.12 0.14 0.16 0.17 0.19 0.23 0.24 0.24 0.28 0.37 0.50 0.61 0.66 0.75 0.84 0.94 1.06 1.16 1.37 1.62 1.76 1.77 1.65 1.50 1.37 1.26 1.13 1.07 1.05
0.47 0.27 0.30 0.41 0.47 0.56 0.57 0.31 0.33 0.39 0.58 0.60 0.46 0.51 0.17 0.11 0.12 0.14 0.16 0.15 0.16 0.20 0.20 0.23 0.32 0.43 0.53 0.64 0.78 0.88 0.90 1.03 1.19 1.32 1.59 1.78 1.79 1.63 1.37 1.26 1.26 1.19 1.09 1.04
0.61 0.31 0.37 0.44 0.35 0.40 0.46 0.32 0.36 0.45 0.69 0.80 0.52 0.58 0.23 0.13 0.14 0.13 0.13 0.13 0.13 0.17 0.19 0.19 0.27 0.36 0.45 0.63 0.78 0.89 0.94 1.05 1.23 1.34 1.48 1.74 1.85 1.67 1.50 1.39 1.30 1.23 1.18 1.13
0.48 0.33 0.41 0.36 0.27 0.33 0.41 0.50 0.61 0.71 1.13 1.40 0.52 0.47 0.30 0.19 0.21 0.17 0.14 0.14 0.14 0.17 0.20 0.19 0.24 0.33 0.42 0.59 0.71 0.89 1.00 1.03 1.21 1.34 1.45 1.59 1.80 1.83 1.69 1.56 1.46 1.32 1.26 1.18
0.59 0.43 0.42 0.38 0.46 0.50 0.71 1.21 1.82 2.01 2.04 1.22 0.27 0.33 0.33 0.20 0.17 0.20 0.20 0.18 0.16 0.17 0.19 0.20 0.24 0.30 0.37 0.55 0.66 0.82 1.00 1.01 1.09 1.24 1.37 1.49 1.68 1.83 1.86 1.70 1.52 1.42 1.40 1.30
0.74 0.59 0.46 0.47 0.57 0.68 0.76 1.10 1.49 1.37 0.89 0.38 0.19 0.29 0.28 0.19 0.15 0.15 0.16 0.17 0.17 0.16 0.18 0.20 0.23 0.28 0.34 0.42 0.56 0.71 0.92 0.97 0.99 1.08 1.22 1.39 1.60 1.78 1.87 1.85 1.64 1.51 1.42 1.31
0.85 0.55 0.32 0.32 0.34 0.46 0.73 0.80 0.73 0.97 0.69 0.42 0.30 0.26 0.21 0.13 0.11 0.11 0.12 0.14 0.16 0.18 0.17 0.19 0.24 0.27 0.33 0.39 0.48 0.63 0.86 0.94 0.90 0.98 1.08 1.22 1.40 1.63 1.75 1.80 1.76 1.62 1.51 1.40
1.01 0.72 0.37 0.33 0.40 0.47 0.57 0.71 0.82 1.28 1.17 0.68 0.38 0.25 0.29 0.21 0.16 0.14 0.15 0.17 0.17 0.16 0.17 0.17 0.22 0.24 0.30 0.36 0.45 0.60 0.77 0.95 0.93 0.93 1.00 1.09 1.18 1.36 1.53 1.70 1.80 1.66 1.58 1.53
0.91 0.97 0.62 0.53 0.71 0.75 0.65 0.86 1.09 1.13 0.91 0.73 0.54 0.41 0.36 0.28 0.24 0.21 0.18 0.18 0.17 0.16 0.18 0.18 0.20 0.22 0.27 0.32 0.38 0.55 0.69 0.85 1.00 1.01 0.99 1.07 1.13 1.26 1.37 1.42 1.51 1.59 1.59 1.55
0.84 1.12 0.86 0.57 0.52 0.54 0.69 0.80 0.94 1.16 0.90 0.53 0.53 0.48 0.32 0.23 0.22 0.22 0.20 0.16 0.15 0.15 0.16 0.17 0.18 0.20 0.24 0.28 0.33 0.44 0.62 0.78 0.91 1.00 1.02 1.06 1.14 1.26 1.32 1.30 1.28 1.33 1.44 1.49
1.25 1.51 1.25 0.94 0.81 0.70 0.88 0.81 0.79 0.84 0.78 0.61 0.52 0.40 0.25 0.17 0.16 0.19 0.19 0.15 0.14 0.14 0.14 0.16 0.17 0.18 0.21 0.25 0.31 0.37 0.49 0.67 0.82 0.93 1.01 0.99 1.10 1.18 1.19 1.22 1.24 1.21 1.27 1.41
1.38 1.51 1.15 1.06 0.98 0.88 0.86 0.71 0.64 0.85 1.01 0.63 0.37 0.28 0.23 0.20 0.18 0.18 0.18 0.16 0.16 0.14 0.13 0.14 0.17 0.18 0.20 0.23 0.25 0.31 0.42 0.54 0.74 0.91 1.04 0.97 1.03 1.14 1.13 1.13 1.20 1.18 1.20 1.33
1.16 1.20 0.61 0.37 0.32 0.43 0.51 0.49 0.50 0.67 0.66 0.56 0.35 0.26 0.29 0.27 0.26 0.25 0.23 0.20 0.17 0.16 0.15 0.14 0.17 0.20 0.22 0.22 0.23 0.27 0.38 0.44 0.63 0.86 1.04 1.05 1.02 1.08 1.12 1.11 1.17 1.22 1.26 1.33
1.02 1.03 0.52 0.30 0.21 0.28 0.35 0.32 0.36 0.40 0.42 0.39 0.29 0.34 0.30 0.28 0.24 0.24 0.24 0.23 0.21 0.20 0.18 0.15 0.16 0.19 0.23 0.23 0.24 0.28 0.34 0.40 0.53 0.73 0.92 1.02 1.01 1.04 1.10 1.07 1.12 1.20 1.25 1.30
0.98 0.96 0.81 0.47 0.22 0.43 0.61 0.44 0.41 0.41 0.42 0.40 0.40 0.39 0.31 0.29 0.28 0.28 0.27 0.27 0.27 0.26 0.23 0.20 0.20 0.21 0.23 0.23 0.25 0.29 0.33 0.36 0.45 0.61 0.78 0.90 0.94 0.93 0.96 0.98 1.07 1.16 1.24 1.23
0.83 0.92 1.12 0.75 0.56 0.94 0.67 0.35 0.37 0.43 0.48 0.44 0.41 0.37 0.34 0.33 0.33 0.31 0.29 0.31 0.31 0.29 0.26 0.24 0.25 0.25 0.24 0.22 0.24 0.26 0.29 0.34 0.39 0.50 0.65 0.82 0.88 0.87 0.86 0.88 0.94 1.03 1.13 1.19
0.50 0.90 1.36 1.11 0.83 0.58 0.36 0.24 0.36 0.48 0.53 0.45 0.36 0.30 0.29 0.29 0.28 0.30 0.28 0.26 0.28 0.28 0.26 0.26 0.28 0.31 0.28 0.24 0.24 0.26 0.29 0.32 0.37 0.49 0.60 0.72 0.83 0.84 0.80 0.84 0.86 0.91 0.97 1.05
0.59 0.98 1.54 1.33 1.00 0.60 0.39 0.19 0.23 0.41 0.59 0.38 0.30 0.27 0.28 0.30 0.37 0.34 0.26 0.21 0.21 0.20 0.20 0.22 0.25 0.27 0.25 0.25 0.26 0.28 0.33 0.34 0.37 0.49 0.59 0.65 0.74 0.77 0.74 0.78 0.84 0.86 0.86 0.90
0.92 1.39 1.55 1.12 0.91 0.45 0.26 0.16 0.21 0.53 0.64 0.33 0.27 0.25 0.26 0.34 0.38 0.30 0.22 0.20 0.20 0.20 0.19 0.20 0.22 0.23 0.23 0.25 0.26 0.29 0.33 0.37 0.39 0.47 0.54 0.59 0.65 0.68 0.67 0.74 0.75 0.80 0.83 0.84
0.70 0.97 0.98 0.91 1.00 0.55 0.23 0.23 0.47 0.57 0.29 0.22 0.20 0.20 0.22 0.24 0.21 0.19 0.20 0.20 0.21 0.20 0.19 0.18 0.19 0.19 0.20 0.22 0.23 0.26 0.32 0.39 0.42 0.45 0.47 0.54 0.61 0.63 0.64 0.75 0.74 0.74 0.80 0.83
0.55 0.77 0.80 0.75 0.66 0.43 0.32 0.37 0.39 0.31 0.25 0.19 0.19 0.18 0.20 0.21 0.20 0.20 0.21 0.20 0.20 0.19 0.18 0.17 0.17 0.17 0.17 0.20 0.22 0.25 0.30 0.37 0.46 0.46 0.47 0.52 0.61 0.68 0.70 0.76 0.78 0.77 0.77 0.80
0.38 0.42 0.55 0.49 0.37 0.31 0.30 0.27 0.23 0.19 0.20 0.18 0.19 0.20 0.22 0.22 0.21 0.22 0.22 0.22 0.22 0.21 0.19 0.17 0.17 0.18 0.20 0.23 0.25 0.27 0.31 0.37 0.47 0.48 0.48 0.52 0.59 0.70 0.72 0.75 0.77 0.79 0.81 0.89
0.32 0.35 0.43 0.41 0.30 0.24 0.20 0.20 0.21 0.18 0.16 0.15 0.16 0.18 0.20 0.21 0.22 0.22 0.23 0.24 0.24 0.23 0.20 0.18 0.18 0.20 0.23 0.26 0.27 0.27 0.30 0.38 0.46 0.50 0.50 0.52 0.57 0.69 0.73 0.77 0.80 0.82 0.80 0.99
0.24 0.31 0.39 0.36 0.27 0.31 0.25 0.20 0.20 0.20 0.18 0.17 0.18 0.19 0.18 0.19 0.21 0.22 0.25 0.26 0.24 0.23 0.20 0.19 0.18 0.19 0.23 0.27 0.29 0.29 0.32 0.37 0.46 0.53 0.56 0.55 0.58 0.69 0.73 0.77 0.82 0.87 0.87 0.91